sat.trackr.live / text

‹ back to catalog

STARLINK-1297

NORAD 45395 · 2020-019AM

PAYLOAD ACTIVE UNKNOWN

§ Identity

Operator
Country
US
Launch date
2020-03-18
Launch site
AFETR
Launch vehicle
Mass (kg)
RCS (m²)

Purposes: comms

External: N2YO · Heavens-Above · Gunter

§ Orbital elements

Epoch: 2026-05-25T04:19:03.696960Z

Period
91.92 min
Inclination
53.0410°
Eccentricity
0.0006939
Mean motion
15.66520464 rev/d
Perigee alt
364.2 km
Apogee alt
373.6 km
Semi-major
6,747.0 km
B*
4.7953e-4
RAAN
117.3025°
Arg perigee
15.1430°
Mean anomaly
344.9791°
Rev number
34,136

§ Raw data

STARLINK-12971 45395U 20019AM  26145.17990390  .00050799  00000+0  47953-3 0  99942 45395  53.0410 117.3025 0006939  15.1430 344.9791 15.66520464341364

JSON: /api/v1/satellites/45395 · /tle

For live sub-satellite position, see the globe view (requires WebGL).

§ Visibility from observer

Set your observer location to see the next 7 days of passes ≥ 10°. The values pass through the URL so the page stays shareable.

No JS? Fill the form by hand. The geolocation button needs JavaScript.